GW0581 Weather Reports


Display with metric or nautical units.
time (UTC)temp
F
wind
direction
speed
MPH
gust
MPH
rain 1hr
in
rain 24hr
in
rain mn
in
humidity
%
barometer
mb
20260503221518 79 299 3.0 15.0 0.00 0.00 0.00 45 1011.5
20260503220518 80 299 4.0 10.0 0.00 0.00 0.00 45 1011.6
20260503215517 80 317 5.0 10.0 0.00 0.00 0.00 44 1011.6
20260503214539 79 333 4.0 11.0 0.00 0.00 0.00 43 1011.7
20260503213539 80 319 3.0 7.0 0.00 0.00 0.00 43 1011.8
20260503212518 79 345 1.0 6.0 0.00 0.00 0.00 42 1011.9
20260503211519 78 311 5.0 11.0 0.00 0.00 0.00 43 1012.0
20260503210518 78 305 2.0 7.0 0.00 0.00 0.00 42 1012.1
20260503205519 78 329 4.0 10.0 0.00 0.00 0.00 42 1012.2
20260503204600 78 300 5.0 9.0 0.00 0.00 0.00 41 1012.3
20260503203516 78 358 3.0 8.0 0.00 0.00 0.00 42 1012.5
20260503202519 78 330 2.0 9.0 0.00 0.00 0.00 46 1012.5
20260503201520 77 334 2.0 8.0 0.00 0.00 0.00 47 1012.6
20260503200519 77 34 1.0 6.0 0.00 0.00 0.00 47 1012.7
20260503195517 77 171 2.0 7.0 0.00 0.00 0.00 48 1012.9
20260503194518 76 83 1.0 4.0 0.00 0.00 0.00 49 1013.0
20260503193519 75 87 1.0 8.0 0.00 0.00 0.00 49 1013.2
20260503192518 76 36 1.0 8.0 0.00 0.00 0.00 49 1013.3
20260503191519 75 67 1.0 6.0 0.00 0.00 0.00 48 1013.4
20260503190518 76 92 1.0 8.0 0.00 0.00 0.00 49 1013.5
20260503185518 75 349 0.0 6.0 0.00 0.00 0.00 51 1013.6
20260503184518 74 137 4.0 9.0 0.00 0.00 0.00 51 1013.6
20260503183518 74 110 3.0 10.0 0.00 0.00 0.00 53 1013.8
20260503182518 73 116 1.0 7.0 0.00 0.00 0.00 54 1013.8
20260503181519 73 107 2.0 7.0 0.00 0.00 0.00 54 1013.9
20260503180540 72 106 2.0 9.0 0.00 0.00 0.00 56 1013.9
20260503175518 72 106 1.0 7.0 0.00 0.00 0.00 58 1014.0
20260503174519 71 20 1.0 4.0 0.00 0.00 0.00 59 1014.1
20260503173518 70 33 3.0 9.0 0.00 0.00 0.00 60 1014.2
20260503172519 70 33 0.0 6.0 0.00 0.00 0.00 61 1014.2
20260503171522 69 22 0.0 3.0 0.00 0.00 0.00 62 1014.3
20260503170518 68 0.0 0.0 0.00 0.00 0.00 63 1014.3
20260503150540 60 31 1.0 4.0 0.00 0.00 0.00 75 1014.6
20260503130518 55 0.0 0.0 0.00 0.00 0.00 82 1014.4
20260503110539 57 0.0 0.0 0.00 0.00 0.00 74 1014.6
20260503081519 60 20 0.0 3.0 0.00 0.00 0.00 63 1014.7
20260503080517 60 0.0 0.0 0.00 0.00 0.00 63 1014.7
20260503072519 61 0.0 0.0 0.00 0.00 0.00 63 1014.6
20260503071518 61 0.0 0.0 0.00 0.00 0.00 62 1014.6
20260503070519 61 0.0 0.0 0.00 0.00 0.00 61 1014.6
20260503054520 62 0.0 0.0 0.00 0.00 0.00 60 1014.4
20260503053519 63 0.0 0.0 0.00 0.00 0.00 59 1014.5
20260503052519 63 40 0.0 3.0 0.00 0.00 0.00 59 1014.5
20260503051518 63 0.0 0.0 0.00 0.00 0.00 60 1014.4
20260503050520 63 0.0 2.0 0.00 0.00 0.00 59 1014.4
20260503045520 63 36 1.0 3.0 0.00 0.00 0.00 59 1014.4
20260503044516 63 0.0 0.0 0.00 0.00 0.00 59 1014.4
20260503043519 64 0.0 0.0 0.00 0.00 0.00 58 1014.3
20260503042518 64 9 0.0 3.0 0.00 0.00 0.00 59 1014.2
20260503041519 64 0.0 0.0 0.00 0.00 0.00 61 1014.1
20260503040518 65 9 0.0 3.0 0.00 0.00 0.00 59 1014.0
20260503035520 65 7 2.0 3.0 0.00 0.00 0.00 59 1013.8
20260503034518 65 0.0 0.0 0.00 0.00 0.00 60 1013.6
20260503033519 66 0.0 0.0 0.00 0.00 0.00 60 1013.5
20260503032518 67 10 1.0 6.0 0.00 0.00 0.00 59 1013.4
20260503031518 67 21 0.0 2.0 0.00 0.00 0.00 59 1013.3
20260503030539 68 36 1.0 7.0 0.00 0.00 0.00 58 1013.3
20260503025518 68 21 1.0 3.0 0.00 0.00 0.00 58 1013.2
20260503024519 69 11 0.0 4.0 0.00 0.00 0.00 57 1013.1
20260503022518 70 341 1.0 7.0 0.00 0.00 0.00 57 1013.1
20260503021518 70 24 2.0 8.0 0.00 0.00 0.00 57 1013.0
20260503020520 70 332 2.0 10.0 0.00 0.00 0.00 57 1013.1
20260503015518 70 8 0.0 4.0 0.00 0.00 0.00 57 1013.0
20260503014519 71 14 2.0 7.0 0.00 0.00 0.00 56 1013.1
20260503013518 71 350 1.0 6.0 0.00 0.00 0.00 56 1013.1
20260503012518 72 38 2.0 7.0 0.00 0.00 0.00 55 1013.1
20260503011519 72 326 1.0 8.0 0.00 0.00 0.00 55 1013.1
20260503010520 73 339 2.0 7.0 0.00 0.00 0.00 54 1013.1
20260503005519 73 330 3.0 10.0 0.00 0.00 0.00 54 1013.1
20260503004556 73 10 3.0 9.0 0.00 0.00 0.00 53 1013.2
20260503003518 73 337 2.0 7.0 0.00 0.00 0.00 52 1013.2
20260503002518 73 350 3.0 10.0 0.00 0.00 0.00 50 1013.3
20260503001519 73 315 1.0 8.0 0.00 0.00 0.00 50 1013.4
20260503000520 74 355 1.0 9.0 0.00 0.00 0.00 50 1013.5
20260502235519 74 312 1.0 6.0 0.00 0.00 0.00 50 1013.6
20260502234518 75 336 2.0 7.0 0.00 0.00 0.00 50 1013.7
20260502233518 75 13 7.0 13.0 0.00 0.00 0.00 50 1013.7
20260502232519 74 329 2.0 14.0 0.00 0.00 0.00 52 1013.8
20260502231518 74 338 4.0 9.0 0.00 0.00 0.00 52 1014.0
20260502230539 74 354 3.0 10.0 0.00 0.00 0.00 51 1014.1
20260502225520 74 357 4.0 13.0 0.00 0.00 0.00 51 1014.3
20260502224520 73 342 3.0 11.0 0.00 0.00 0.00 50 1014.4
20260502223539 74 347 2.0 10.0 0.00 0.00 0.00 50 1014.5
20260502222519 73 353 4.0 13.0 0.00 0.00 0.00 49 1014.6